Time,TemperatureF,DewpointF,PressureIn,WindDirection,WindDirectionDegrees,WindSpeedMPH,WindSpeedGustMPH,Humidity,HourlyPrecipIn,Conditions,Clouds,dailyrainin,SoftwareType,DateUTC
2013-05-10 00:03:00,62.0,-99.9,-100.00,NW,315,1.0,4.0,-999,-99.99,,,-99.99,,2013-05-10 04:03:00,
2013-05-10 00:10:00,58.0,-99.9,-100.00,SSE,167,2.0,8.0,-999,-99.99,,,-99.99,,2013-05-10 04:10:00,
2013-05-10 00:12:00,58.0,-99.9,-100.00,SSE,167,2.0,8.0,-999,-99.99,,,-99.99,,2013-05-10 04:12:00,
2013-05-10 00:23:00,60.0,-99.9,-100.00,ENE,70,0.0,2.0,-999,-99.99,,,-99.99,,2013-05-10 04:23:00,
2013-05-10 00:33:00,58.0,-99.9,-100.00,SSE,167,2.0,8.0,-999,-99.99,,,-99.99,,2013-05-10 04:33:00,
2013-05-10 00:43:00,58.0,-99.9,-100.00,SSE,167,2.0,8.0,-999,-99.99,,,-99.99,,2013-05-10 04:43:00,
2013-05-10 00:53:00,58.0,-99.9,-100.00,SSE,167,2.0,8.0,-999,-99.99,,,-99.99,,2013-05-10 04:53:00,
2013-05-10 01:03:00,58.0,-99.9,-100.00,SSE,167,2.0,8.0,-999,-99.99,,,-99.99,,2013-05-10 05:03:00,
2013-05-10 01:22:00,61.0,-99.9,-100.00,NNE,25,1.0,2.0,-999,-99.99,,,-99.99,,2013-05-10 05:22:00,
2013-05-10 01:32:00,61.0,-99.9,-100.00,NNE,25,1.0,2.0,-999,-99.99,,,-99.99,,2013-05-10 05:32:00,
2013-05-10 01:42:00,61.0,-99.9,-100.00,North,-999,0.0,3.0,-999,-99.99,,,-99.99,,2013-05-10 05:42:00,
2013-05-10 01:52:00,61.0,-99.9,-100.00,North,-999,0.0,3.0,-999,-99.99,,,-99.99,,2013-05-10 05:52:00,
2013-05-10 02:02:00,60.0,-99.9,-100.00,North,9,2.0,3.0,-999,-99.99,,,-99.99,,2013-05-10 06:02:00,
2013-05-10 02:12:00,60.0,-99.9,-100.00,North,9,2.0,3.0,-999,-99.99,,,-99.99,,2013-05-10 06:12:00,
2013-05-10 02:22:00,60.0,-99.9,-100.00,North,8,1.0,3.0,-999,-99.99,,,-99.99,,2013-05-10 06:22:00,
2013-05-10 02:32:00,60.0,-99.9,-100.00,North,9,2.0,3.0,-999,-99.99,,,-99.99,,2013-05-10 06:32:00,
2013-05-10 02:42:00,60.0,-99.9,-100.00,North,9,2.0,3.0,-999,-99.99,,,-99.99,,2013-05-10 06:42:00,
2013-05-10 02:52:00,60.0,-99.9,-100.00,NNE,18,1.0,4.0,-999,-99.99,,,-99.99,,2013-05-10 06:52:00,
2013-05-10 03:02:00,60.0,-99.9,-100.00,NNE,18,1.0,4.0,-999,-99.99,,,-99.99,,2013-05-10 07:02:00,
2013-05-10 03:12:00,60.0,-99.9,-100.00,NNE,18,1.0,4.0,-999,-99.99,,,-99.99,,2013-05-10 07:12:00,
2013-05-10 03:22:00,60.0,-99.9,-100.00,NE,34,1.0,4.0,-999,-99.99,,,-99.99,,2013-05-10 07:22:00,
2013-05-10 03:32:00,60.0,-99.9,-100.00,NE,34,1.0,4.0,-999,-99.99,,,-99.99,,2013-05-10 07:32:00,
2013-05-10 03:42:00,60.0,-99.9,-100.00,NE,34,1.0,4.0,-999,-99.99,,,-99.99,,2013-05-10 07:42:00,
2013-05-10 03:52:00,60.0,-99.9,-100.00,NNE,18,1.0,4.0,-999,-99.99,,,-99.99,,2013-05-10 07:52:00,
2013-05-10 04:02:00,60.0,-99.9,-100.00,NNE,18,1.0,4.0,-999,-99.99,,,-99.99,,2013-05-10 08:02:00,
2013-05-10 04:12:00,60.0,-99.9,-100.00,NNE,27,1.0,4.0,-999,-99.99,,,-99.99,,2013-05-10 08:12:00,
2013-05-10 04:22:00,60.0,-99.9,-100.00,East,90,1.0,3.0,-999,-99.99,,,-99.99,,2013-05-10 08:22:00,
2013-05-10 04:33:00,60.0,-99.9,-100.00,East,90,1.0,3.0,-999,-99.99,,,-99.99,,2013-05-10 08:33:00,
2013-05-10 04:42:00,60.0,-99.9,-100.00,NNE,27,1.0,4.0,-999,-99.99,,,-99.99,,2013-05-10 08:42:00,
2013-05-10 04:52:00,60.0,-99.9,-100.00,NNE,27,1.0,4.0,-999,-99.99,,,-99.99,,2013-05-10 08:52:00,
2013-05-10 05:02:00,60.0,-99.9,-100.00,South,173,1.0,3.0,-999,-99.99,,,-99.99,,2013-05-10 09:02:00,
2013-05-10 05:11:00,60.0,-99.9,-100.00,South,173,1.0,3.0,-999,-99.99,,,-99.99,,2013-05-10 09:11:00,
2013-05-10 05:22:00,60.0,-99.9,-100.00,SE,128,2.0,5.0,-999,-99.99,,,-99.99,,2013-05-10 09:22:00,
2013-05-10 05:33:00,60.0,-99.9,-100.00,SE,128,2.0,5.0,-999,-99.99,,,-99.99,,2013-05-10 09:33:00,
2013-05-10 05:43:00,60.0,-99.9,-100.00,South,173,1.0,3.0,-999,-99.99,,,-99.99,,2013-05-10 09:43:00,
2013-05-10 05:53:00,60.0,-99.9,-100.00,South,173,1.0,3.0,-999,-99.99,,,-99.99,,2013-05-10 09:53:00,
2013-05-10 06:03:00,61.0,-99.9,-100.00,South,175,8.0,12.0,-999,-99.99,,,-99.99,,2013-05-10 10:03:00,
2013-05-10 06:12:00,61.0,-99.9,-100.00,South,175,8.0,12.0,-999,-99.99,,,-99.99,,2013-05-10 10:12:00,
2013-05-10 06:23:00,61.0,-99.9,-100.00,South,177,9.0,13.0,-999,-99.99,,,-99.99,,2013-05-10 10:23:00,
2013-05-10 06:33:00,61.0,-99.9,-100.00,South,177,9.0,13.0,-999,-99.99,,,-99.99,,2013-05-10 10:33:00,
2013-05-10 06:42:00,61.0,-99.9,-100.00,South,175,8.0,12.0,-999,-99.99,,,-99.99,,2013-05-10 10:42:00,
2013-05-10 06:53:00,61.0,-99.9,-100.00,South,175,8.0,12.0,-999,-99.99,,,-99.99,,2013-05-10 10:53:00,
2013-05-10 07:02:00,61.0,-99.9,-100.00,South,181,10.0,16.0,-999,-99.99,,,-99.99,,2013-05-10 11:02:00,
2013-05-10 07:12:00,61.0,-99.9,-100.00,South,181,10.0,16.0,-999,-99.99,,,-99.99,,2013-05-10 11:12:00,
2013-05-10 07:22:00,57.0,-99.9,-100.00,South,190,9.0,15.0,-999,-99.99,,,-99.99,,2013-05-10 11:22:00,
2013-05-10 07:32:00,57.0,-99.9,-100.00,South,190,9.0,15.0,-999,-99.99,,,-99.99,,2013-05-10 11:32:00,
2013-05-10 07:42:00,61.0,-99.9,-100.00,South,181,10.0,16.0,-999,-99.99,,,-99.99,,2013-05-10 11:42:00,
2013-05-10 07:52:00,61.0,-99.9,-100.00,South,181,10.0,16.0,-999,-99.99,,,-99.99,,2013-05-10 11:52:00,
2013-05-10 08:02:00,53.0,-99.9,-100.00,SSW,194,12.0,16.0,-999,-99.99,,,-99.99,,2013-05-10 12:02:00,
2013-05-10 08:12:00,53.0,-99.9,-100.00,SSW,194,12.0,16.0,-999,-99.99,,,-99.99,,2013-05-10 12:12:00,
2013-05-10 08:42:00,53.0,-99.9,-100.00,SSW,194,12.0,16.0,-999,-99.99,,,-99.99,,2013-05-10 12:42:00,
2013-05-10 08:52:00,53.0,-99.9,-100.00,SSW,194,12.0,16.0,-999,-99.99,,,-99.99,,2013-05-10 12:52:00,
2013-05-10 09:01:00,49.0,-99.9,-100.00,SSW,194,19.0,23.0,-999,-99.99,,,-99.99,,2013-05-10 13:01:00,
2013-05-10 09:11:00,49.0,-99.9,-100.00,SSW,194,19.0,23.0,-999,-99.99,,,-99.99,,2013-05-10 13:11:00,
2013-05-10 09:21:00,46.0,-99.9,-100.00,SSW,196,16.0,20.0,-999,-99.99,,,-99.99,,2013-05-10 13:21:00,
2013-05-10 09:32:00,49.0,-99.9,-100.00,SSW,194,19.0,23.0,-999,-99.99,,,-99.99,,2013-05-10 13:32:00,
2013-05-10 09:42:00,49.0,-99.9,-100.00,SSW,194,19.0,23.0,-999,-99.99,,,-99.99,,2013-05-10 13:42:00,
2013-05-10 09:52:00,49.0,-99.9,-100.00,SSW,194,19.0,23.0,-999,-99.99,,,-99.99,,2013-05-10 13:52:00,
2013-05-10 10:02:00,46.0,-99.9,-100.00,SSW,193,18.0,22.0,-999,-99.99,,,-99.99,,2013-05-10 14:02:00,
2013-05-10 10:11:00,46.0,-99.9,-100.00,SSW,193,18.0,22.0,-999,-99.99,,,-99.99,,2013-05-10 14:11:00,
2013-05-10 10:22:00,46.0,-99.9,-100.00,South,190,19.0,22.0,-999,-99.99,,,-99.99,,2013-05-10 14:22:00,
2013-05-10 10:32:00,46.0,-99.9,-100.00,South,190,19.0,22.0,-999,-99.99,,,-99.99,,2013-05-10 14:32:00,
2013-05-10 10:42:00,46.0,-99.9,-100.00,SSW,193,18.0,22.0,-999,-99.99,,,-99.99,,2013-05-10 14:42:00,
2013-05-10 10:52:00,46.0,-99.9,-100.00,SSW,193,18.0,22.0,-999,-99.99,,,-99.99,,2013-05-10 14:52:00,
2013-05-10 11:02:00,46.0,-99.9,-100.00,SSW,193,18.0,22.0,-999,-99.99,,,-99.99,,2013-05-10 15:02:00,
2013-05-10 11:21:00,-999.0,-99.9,-100.00,SSW,193,21.0,24.0,-999,-99.99,,,-99.99,,2013-05-10 15:21:00,
2013-05-10 11:32:00,45.0,-99.9,-100.00,SSW,199,18.0,23.0,-999,-99.99,,,-99.99,,2013-05-10 15:32:00,
2013-05-10 11:43:00,45.0,-99.9,-100.00,SSW,193,21.0,24.0,-999,-99.99,,,-99.99,,2013-05-10 15:43:00,
2013-05-10 11:53:00,45.0,-99.9,-100.00,SSW,193,21.0,24.0,-999,-99.99,,,-99.99,,2013-05-10 15:53:00,
2013-05-10 12:02:00,45.0,-99.9,-100.00,SSW,193,21.0,24.0,-999,-99.99,,,-99.99,,2013-05-10 16:02:00,
2013-05-10 12:12:00,45.0,-99.9,-100.00,SSW,199,19.0,24.0,-999,-99.99,,,-99.99,,2013-05-10 16:12:00,
2013-05-10 12:23:00,46.0,-99.9,-100.00,SSW,206,17.0,20.0,-999,-99.99,,,-99.99,,2013-05-10 16:23:00,
2013-05-10 12:33:00,45.0,-99.9,-100.00,SSW,199,19.0,24.0,-999,-99.99,,,-99.99,,2013-05-10 16:33:00,
2013-05-10 12:43:00,45.0,-99.9,-100.00,SSW,199,19.0,24.0,-999,-99.99,,,-99.99,,2013-05-10 16:43:00,
2013-05-10 12:53:00,45.0,-99.9,-100.00,SSW,199,19.0,24.0,-999,-99.99,,,-99.99,,2013-05-10 16:53:00,
2013-05-10 13:02:00,47.0,-99.9,-100.00,SSW,205,16.0,22.0,-999,-99.99,,,-99.99,,2013-05-10 17:02:00,
2013-05-10 13:12:00,47.0,-99.9,-100.00,SSW,205,16.0,22.0,-999,-99.99,,,-99.99,,2013-05-10 17:12:00,
2013-05-10 13:22:00,48.0,-99.9,-100.00,SW,224,11.0,13.0,-999,-99.99,,,-99.99,,2013-05-10 17:22:00,
2013-05-10 13:32:00,48.0,-99.9,-100.00,SW,224,11.0,13.0,-999,-99.99,,,-99.99,,2013-05-10 17:32:00,
2013-05-10 13:42:00,47.0,-99.9,-100.00,SSW,205,16.0,22.0,-999,-99.99,,,-99.99,,2013-05-10 17:42:00,
2013-05-10 13:52:00,47.0,-99.9,-100.00,SSW,205,16.0,22.0,-999,-99.99,,,-99.99,,2013-05-10 17:52:00,
2013-05-10 14:11:00,-999.0,-99.9,-100.00,West,272,9.0,19.0,-999,-99.99,,,-99.99,,2013-05-10 18:11:00,
2013-05-10 14:22:00,49.0,-99.9,-100.00,WNW,296,7.0,13.0,-999,-99.99,,,-99.99,,2013-05-10 18:22:00,
2013-05-10 14:35:00,49.0,-99.9,-100.00,WNW,296,7.0,13.0,-999,-99.99,,,-99.99,,2013-05-10 18:35:00,
2013-05-10 14:43:00,48.0,-99.9,-100.00,West,272,9.0,19.0,-999,-99.99,,,-99.99,,2013-05-10 18:43:00,
2013-05-10 14:54:00,48.0,-99.9,-100.00,West,272,9.0,19.0,-999,-99.99,,,-99.99,,2013-05-10 18:54:00,
2013-05-10 15:02:00,50.0,-99.9,-100.00,North,3,12.0,17.0,-999,-99.99,,,-99.99,,2013-05-10 19:02:00,
2013-05-10 15:12:00,50.0,-99.9,-100.00,North,3,12.0,17.0,-999,-99.99,,,-99.99,,2013-05-10 19:12:00,
2013-05-10 15:22:00,48.0,-99.9,-100.00,NW,320,17.0,20.0,-999,-99.99,,,-99.99,,2013-05-10 19:22:00,
2013-05-10 15:32:00,48.0,-99.9,-100.00,NW,320,17.0,20.0,-999,-99.99,,,-99.99,,2013-05-10 19:32:00,
2013-05-10 15:42:00,48.0,-99.9,-100.00,NW,320,17.0,20.0,-999,-99.99,,,-99.99,,2013-05-10 19:42:00,
2013-05-10 15:52:00,50.0,-99.9,-100.00,North,3,12.0,17.0,-999,-99.99,,,-99.99,,2013-05-10 19:52:00,
2013-05-10 16:02:00,50.0,-99.9,-100.00,North,3,12.0,17.0,-999,-99.99,,,-99.99,,2013-05-10 20:02:00,
2013-05-10 16:12:00,46.0,-99.9,-100.00,NW,317,19.0,23.0,-999,-99.99,,,-99.99,,2013-05-10 20:12:00,
2013-05-10 16:22:00,46.0,-99.9,-100.00,NW,323,20.0,24.0,-999,-99.99,,,-99.99,,2013-05-10 20:22:00,
2013-05-10 16:32:00,46.0,-99.9,-100.00,NW,323,20.0,24.0,-999,-99.99,,,-99.99,,2013-05-10 20:32:00,
2013-05-10 16:42:00,46.0,-99.9,-100.00,NW,317,19.0,23.0,-999,-99.99,,,-99.99,,2013-05-10 20:42:00,
2013-05-10 16:52:00,46.0,-99.9,-100.00,NW,317,19.0,23.0,-999,-99.99,,,-99.99,,2013-05-10 20:52:00,
2013-05-10 17:02:00,45.0,-99.9,-100.00,NW,318,21.0,26.0,-999,-99.99,,,-99.99,,2013-05-10 21:02:00,
2013-05-10 17:11:00,45.0,-99.9,-100.00,NW,318,21.0,26.0,-999,-99.99,,,-99.99,,2013-05-10 21:11:00,
2013-05-10 17:25:00,45.0,-99.9,-100.00,NW,324,20.0,25.0,-999,-99.99,,,-99.99,,2013-05-10 21:25:00,
2013-05-10 17:32:00,45.0,-99.9,-100.00,NW,318,21.0,26.0,-999,-99.99,,,-99.99,,2013-05-10 21:32:00,
2013-05-10 17:43:00,45.0,-99.9,-100.00,NW,318,21.0,26.0,-999,-99.99,,,-99.99,,2013-05-10 21:43:00,
2013-05-10 17:53:00,45.0,-99.9,-100.00,NW,318,21.0,26.0,-999,-99.99,,,-99.99,,2013-05-10 21:53:00,
2013-05-10 18:03:00,45.0,-99.9,-100.00,NW,318,21.0,26.0,-999,-99.99,,,-99.99,,2013-05-10 22:03:00,
2013-05-10 18:13:00,45.0,-99.9,-100.00,NW,318,21.0,26.0,-999,-99.99,,,-99.99,,2013-05-10 22:13:00,
2013-05-10 18:22:00,45.0,-99.9,-100.00,NNW,333,15.0,22.0,-999,-99.99,,,-99.99,,2013-05-10 22:22:00,
2013-05-10 18:32:00,45.0,-99.9,-100.00,NNW,333,15.0,22.0,-999,-99.99,,,-99.99,,2013-05-10 22:32:00,
2013-05-10 18:42:00,45.0,-99.9,-100.00,NNW,333,15.0,22.0,-999,-99.99,,,-99.99,,2013-05-10 22:42:00,
2013-05-10 18:53:00,45.0,-99.9,-100.00,NNW,331,17.0,25.0,-999,-99.99,,,-99.99,,2013-05-10 22:53:00,
2013-05-10 19:02:00,45.0,-99.9,-100.00,NNW,331,17.0,25.0,-999,-99.99,,,-99.99,,2013-05-10 23:02:00,
2013-05-10 19:12:00,45.0,-99.9,-100.00,NNW,345,15.0,22.0,-999,-99.99,,,-99.99,,2013-05-10 23:12:00,
2013-05-10 19:22:00,46.0,-99.9,-100.00,NNW,333,15.0,18.0,-999,-99.99,,,-99.99,,2013-05-10 23:22:00,
2013-05-10 19:33:00,45.0,-99.9,-100.00,NNW,345,15.0,22.0,-999,-99.99,,,-99.99,,2013-05-10 23:33:00,
2013-05-10 19:42:00,45.0,-99.9,-100.00,NNW,345,15.0,22.0,-999,-99.99,,,-99.99,,2013-05-10 23:42:00,
2013-05-10 19:52:00,45.0,-99.9,-100.00,NNW,345,15.0,22.0,-999,-99.99,,,-99.99,,2013-05-10 23:52:00,
2013-05-10 20:02:00,44.0,-99.9,-100.00,NNW,327,16.0,19.0,-999,-99.99,,,-99.99,,2013-05-11 00:02:00,
2013-05-10 20:11:00,44.0,-99.9,-100.00,NNW,327,16.0,19.0,-999,-99.99,,,-99.99,,2013-05-11 00:11:00,
2013-05-10 20:22:00,44.0,-99.9,-100.00,NW,323,17.0,20.0,-999,-99.99,,,-99.99,,2013-05-11 00:22:00,
2013-05-10 20:32:00,44.0,-99.9,-100.00,NW,323,17.0,20.0,-999,-99.99,,,-99.99,,2013-05-11 00:32:00,
2013-05-10 20:42:00,44.0,-99.9,-100.00,NNW,327,16.0,19.0,-999,-99.99,,,-99.99,,2013-05-11 00:42:00,
2013-05-10 20:52:00,44.0,-99.9,-100.00,NNW,327,16.0,19.0,-999,-99.99,,,-99.99,,2013-05-11 00:52:00,
2013-05-10 21:01:00,44.0,-99.9,-100.00,NW,322,18.0,21.0,-999,-99.99,,,-99.99,,2013-05-11 01:01:00,
2013-05-10 21:11:00,44.0,-99.9,-100.00,NW,322,18.0,21.0,-999,-99.99,,,-99.99,,2013-05-11 01:11:00,
2013-05-10 21:22:00,44.0,-99.9,-100.00,NW,326,18.0,21.0,-999,-99.99,,,-99.99,,2013-05-11 01:22:00,
2013-05-10 21:32:00,44.0,-99.9,-100.00,NW,326,18.0,21.0,-999,-99.99,,,-99.99,,2013-05-11 01:32:00,
2013-05-10 21:42:00,44.0,-99.9,-100.00,NW,326,18.0,21.0,-999,-99.99,,,-99.99,,2013-05-11 01:42:00,
2013-05-10 21:52:00,44.0,-99.9,-100.00,NW,322,18.0,21.0,-999,-99.99,,,-99.99,,2013-05-11 01:52:00,
2013-05-10 22:02:00,44.0,-99.9,-100.00,NW,322,18.0,21.0,-999,-99.99,,,-99.99,,2013-05-11 02:02:00,
2013-05-10 22:12:00,44.0,-99.9,-100.00,NW,322,18.0,21.0,-999,-99.99,,,-99.99,,2013-05-11 02:12:00,
2013-05-10 22:22:00,44.0,-99.9,-100.00,NNW,328,16.0,18.0,-999,-99.99,,,-99.99,,2013-05-11 02:22:00,
2013-05-10 22:32:00,44.0,-99.9,-100.00,NNW,328,16.0,18.0,-999,-99.99,,,-99.99,,2013-05-11 02:32:00,
2013-05-10 22:42:00,44.0,-99.9,-100.00,NNW,328,17.0,21.0,-999,-99.99,,,-99.99,,2013-05-11 02:42:00,
2013-05-10 22:52:00,44.0,-99.9,-100.00,NNW,328,17.0,21.0,-999,-99.99,,,-99.99,,2013-05-11 02:52:00,
2013-05-10 23:01:00,44.0,-99.9,-100.00,NNW,332,14.0,19.0,-999,-99.99,,,-99.99,,2013-05-11 03:01:00,
2013-05-10 23:11:00,44.0,-99.9,-100.00,NNW,332,14.0,19.0,-999,-99.99,,,-99.99,,2013-05-11 03:11:00,
2013-05-10 23:22:00,44.0,-99.9,-100.00,NNW,334,12.0,16.0,-999,-99.99,,,-99.99,,2013-05-11 03:22:00,
2013-05-10 23:33:00,44.0,-99.9,-100.00,NNW,332,14.0,19.0,-999,-99.99,,,-99.99,,2013-05-11 03:33:00,
2013-05-10 23:43:00,44.0,-99.9,-100.00,NNW,332,14.0,19.0,-999,-99.99,,,-99.99,,2013-05-11 03:43:00,
2013-05-10 23:53:00,44.0,-99.9,-100.00,NNW,332,14.0,19.0,-999,-99.99,,,-99.99,,2013-05-11 03:53:00,